Погода в Паневежисе

Литва     55°43′56″N   24°21′17″E
темп.,
°C
ветер,
м/с
пор.,
м/с
влажн.,
%
обл.,
%
осадки,
мм/ч
давл.,
гПа
погр.,
м
19 апреля, пн
пн1900:00+8всв410690 0.0 1022171
03:00+6св37750 0.0 1022123
06:00+5св35750 0.0 102278
09:00+8всв45700 0.0 1022279
12:00+14в56545 0.0 1021995
15:00+16в554184 0.0 10212353
18:00+15всв464890 0.0 10201720
21:00+10всв346590 0.0 102163
20 апреля, вт
вт2000:00+8юв22735 0.0 102113
03:00+7в227676 0.0 102025
06:00+6св228097 0.0 101934
09:00+9всв2373100 0.0 1018236
12:00+12св345586 0.2 10161322
15:00+13ссв345283 0.9 10141517
18:00+11в4569100 0.9 1013829
21:00+8всв2275100 1.0 101322
21 апреля, ср
ср2100:00+6в227872 0.0 101223
03:00+4всв118214 0.0 101110
06:00+4св118511 0.0 100910
09:00+7в00745 0.0 1009282
12:00+11з23615 0.0 10071088
15:00+13сз4646100 0.1 10062188
18:00+13з244697 0.0 10051775
21:00+9з336935 0.3 100535
22 апреля, чт
чт2200:00+6зюз338488 0.0 100645
03:00+5ююз368778 0.0 1006124
06:00+4зюз3794100 0.0 1006381
09:00+4зюз468589 0.3 1008665
12:00+6юз586997 0.1 10091283
15:00+10юз71144100 0.1 10092481
18:00+9юз595051 0.0 10092197
21:00+6ююз366892 0.2 1010141
23 апреля, пт
пт2300:00+3ююз34795 0.0 101054
03:00+2ю34825 0.0 100967
06:00+1ю3685100 0.0 1008127
09:00+3ююз3695100 0.0 1008454
12:00+5з5673100 0.2 10081050
15:00+7з466166 0.3 10081432
18:00+8з456189 0.8 10071221
21:00+1сз81597100 2.4 1010733